TimeEST,TemperatureF,Dew PointF,Humidity,Sea Level PressureIn,VisibilityMPH,Wind Direction,Wind SpeedMPH,Gust SpeedMPH,PrecipitationIn,Events,Conditions,WindDirDegrees,DateUTC
12:53 AM,37.0,34.0,89,30.17,7.0,WSW,10.4,-,N/A,,Overcast,250,2011-11-24 05:53:00
1:08 AM,37.4,33.8,87,30.15,7.0,WSW,10.4,-,N/A,,Overcast,240,2011-11-24 06:08:00
1:12 AM,37.4,33.8,87,30.15,7.0,WSW,11.5,-,N/A,,Overcast,240,2011-11-24 06:12:00
1:21 AM,37.4,33.8,87,30.15,6.0,WSW,9.2,-,N/A,,Overcast,240,2011-11-24 06:21:00
1:53 AM,36.0,34.0,93,30.16,6.0,SW,10.4,-,N/A,,Overcast,230,2011-11-24 06:53:00
2:21 AM,35.6,33.8,93,30.14,5.0,SW,11.5,-,N/A,,Mostly Cloudy,230,2011-11-24 07:21:00
2:33 AM,35.6,33.8,93,30.14,4.0,SW,13.8,-,N/A,,Mostly Cloudy,230,2011-11-24 07:33:00
2:42 AM,35.6,33.8,93,30.14,3.0,SW,13.8,-,N/A,,Mostly Cloudy,230,2011-11-24 07:42:00
2:49 AM,35.6,35.6,100,30.14,1.8,SW,13.8,-,N/A,,Mostly Cloudy,230,2011-11-24 07:49:00
2:53 AM,36.0,34.0,93,30.16,1.0,SW,13.8,-,N/A,,Overcast,230,2011-11-24 07:53:00
3:00 AM,35.6,35.6,100,30.14,0.5,SW,13.8,-,N/A,Fog,Fog,230,2011-11-24 08:00:00
3:39 AM,37.4,37.4,100,30.14,1.2,WSW,12.7,-,N/A,,Overcast,250,2011-11-24 08:39:00
3:53 AM,37.4,37.4,100,30.14,1.2,WSW,11.5,-,N/A,,Overcast,250,2011-11-24 08:53:00
4:53 AM,39.0,37.9,96,30.14,2.0,WSW,12.7,-,N/A,,Overcast,240,2011-11-24 09:53:00
5:53 AM,37.9,37.0,97,30.15,2.5,SW,12.7,-,N/A,,Overcast,230,2011-11-24 10:53:00
6:39 AM,37.4,35.6,93,30.14,3.0,SW,11.5,-,N/A,,Mostly Cloudy,230,2011-11-24 11:39:00
6:53 AM,37.0,36.0,96,30.16,3.0,SW,12.7,-,N/A,,Overcast,230,2011-11-24 11:53:00
7:32 AM,39.2,37.4,93,30.14,2.0,WSW,13.8,-,N/A,,Overcast,240,2011-11-24 12:32:00
7:53 AM,39.9,37.9,93,30.17,2.0,WSW,15.0,-,N/A,,Overcast,240,2011-11-24 12:53:00
8:53 AM,41.0,39.0,93,30.17,1.5,WSW,15.0,-,N/A,,Overcast,240,2011-11-24 13:53:00
9:49 AM,42.8,39.2,87,30.16,2.5,WSW,17.3,23.0,N/A,,Overcast,240,2011-11-24 14:49:00
9:53 AM,43.0,39.0,86,30.18,2.5,WSW,16.1,-,N/A,,Overcast,250,2011-11-24 14:53:00
10:53 AM,43.0,39.0,86,30.18,2.5,SW,19.6,24.2,N/A,,Overcast,230,2011-11-24 15:53:00
11:11 AM,44.6,39.2,81,30.16,4.0,WSW,15.0,23.0,N/A,,Overcast,240,2011-11-24 16:11:00
11:53 AM,45.0,39.9,82,30.17,3.0,SW,12.7,-,N/A,,Haze,230,2011-11-24 16:53:00
12:53 PM,46.0,39.9,79,30.15,5.0,SW,17.3,-,N/A,,Haze,230,2011-11-24 17:53:00
1:53 PM,44.6,39.2,81,30.12,4.0,SW,20.7,27.6,N/A,,Haze,220,2011-11-24 18:53:00
2:53 PM,44.1,39.0,82,30.13,6.0,SW,20.7,-,N/A,,Haze,220,2011-11-24 19:53:00
3:43 PM,44.6,37.4,76,30.10,9.0,SW,20.7,27.6,N/A,,Overcast,220,2011-11-24 20:43:00
3:53 PM,45.0,37.9,76,30.12,9.0,SW,19.6,-,N/A,,Overcast,230,2011-11-24 20:53:00
4:53 PM,45.0,39.0,80,30.12,7.0,SW,13.8,21.9,N/A,,Overcast,220,2011-11-24 21:53:00
5:53 PM,45.0,39.0,80,30.11,10.0,SW,15.0,19.6,N/A,,Overcast,220,2011-11-24 22:53:00
6:53 PM,44.1,39.0,82,30.11,10.0,SSW,11.5,20.7,N/A,,Overcast,210,2011-11-24 23:53:00
7:53 PM,42.1,37.9,85,30.10,8.0,SSW,10.4,-,N/A,,Partly Cloudy,210,2011-11-25 00:53:00
8:49 PM,42.8,39.2,87,30.08,7.0,SW,16.1,19.6,N/A,,Mostly Cloudy,220,2011-11-25 01:49:00
8:53 PM,43.0,39.0,86,30.09,7.0,SW,15.0,-,N/A,,Mostly Cloudy,220,2011-11-25 01:53:00
9:53 PM,43.0,39.0,86,30.07,6.0,SW,17.3,-,N/A,,Overcast,230,2011-11-25 02:53:00
10:53 PM,42.1,39.0,89,30.06,6.0,SW,16.1,-,N/A,,Overcast,230,2011-11-25 03:53:00
11:18 PM,42.8,39.2,87,30.04,6.0,SW,17.3,-,N/A,,Overcast,220,2011-11-25 04:18:00
11:51 PM,41.0,37.4,87,30.04,5.0,SW,13.8,-,N/A,,Scattered Clouds,230,2011-11-25 04:51:00
11:53 PM,41.0,37.4,87,30.04,5.0,SW,12.7,-,N/A,,Partly Cloudy,230,2011-11-25 04:53:00